Location: Waldport
(44.4270°N, 124.0680°W)
Time: 16:43:50
(UTC-08:00)

Daily predictions for brighter satellites

Satellite Brightness Start Highest point End
(mag) Time Altitude Azimuth Time Altitude Azimuth Time Altitude Azimuth
Cosmos 1300 4.4 17:35:26 10° NE 17:37:24 14° ENE 17:39:23 10° E
Cosmos 2237 Rocket 3.9 17:36:44 10° ESE 17:39:01 13° E 17:41:19 10° ENE
AQUARIUS 4.1 17:36:20 10° SSE 17:40:50 82° ENE 17:45:22 10° NNW
Lacrosse 5 2.4 17:36:02 10° WSW 17:41:04 57° NW 17:46:07 10° NE
CZ-2C R/B 2.5 17:36:56 10° SSE 17:41:59 87° WSW 17:46:55 10° NNW
CZ-4C R/B 4.3 17:39:31 10° WNW 17:43:18 17° NNW 17:47:23 10° NNE
Cosmos 1328 Rocket 4.1 17:40:40 10° N 17:44:50 38° ENE 17:48:58 10° SE
Cosmos 1763 Rocket 4.0 17:41:57 10° S 17:46:48 40° ESE 17:51:37 10° NE
Cosmos 1515 Rocket 4.3 17:45:20 10° N 17:49:23 32° ENE 17:53:23 10° SE
Cosmos 1726 3.5 17:48:17 10° NNE 17:51:00 19° ENE 17:53:43 10° ESE
SKYMED 2 4.3 17:47:07 10° NNE 17:51:02 32° E 17:54:56 10° SSE
SMAP 3.5 17:52:34 10° S 17:57:12 70° WSW 18:01:52 10° NNW
Cosmos 1634 Rocket 4.3 17:51:47 10° N 17:57:42 45° ENE 18:03:33 10° SSE
Cosmos 2322 3.9 17:52:51 10° SSW 17:58:32 79° WNW 18:04:16 10° NNE
SJ-6B 4.1 17:57:15 10° ESE 18:00:16 21° ENE 18:03:21 10° NNE
SPOT 3 Rocket 3.9 17:56:31 10° S 18:01:39 72° WSW 18:06:50 10° NNW
Thor Agena Rocket 3.6 17:56:37 10° NNE 18:01:56 86° ESE 18:07:09 10° SSW
Cosmos 2150 Rocket 4.4 17:57:56 10° NNW 18:03:09 68° WSW 18:08:16 10° S
Meteor 1-28 Rocket 4.2 18:00:19 10° NE 18:03:31 27° E 18:06:42 10° SSE
BREEZE-M DEB (TANK) 4.3 18:03:30 10° SSE 18:04:08 11° SE 18:04:47 10° ESE
COSMOS 2441 4.4 18:00:19 10° SSE 18:05:12 88° ENE 18:10:06 10° NNW
Cosmos 2151 4.1 18:02:44 10° SE 18:06:04 23° E 18:09:02 12° NE
Cosmos 1500 Rocket 4.1 18:02:26 10° SSE 18:06:24 37° E 18:10:25 10° NNE
SL-16 R/B 4.0 18:02:27 10° WSW 18:07:17 28° NW 18:12:09 10° N
Cosmos 1151 Rocket 3.6 18:03:25 10° N 18:07:18 33° ENE 18:11:10 10° SE
OTV 4 2.3 18:06:49 10° SW 18:09:14 23° S 18:11:32 11° ESE
Meteor 1-21 Rocket 4.4 18:05:01 10° S 18:10:57 89° E 18:16:52 10° N
Cosmos 1076 Rocket 4.5 18:07:15 10° SSW 18:11:21 49° WNW 18:15:31 10° N
Cosmos 2333 4.2 18:07:28 10° S 18:12:59 63° ESE 18:18:31 10° NNE
Cosmos 1844 Rocket 2.6 18:07:44 10° NNW 18:13:26 76° ENE 18:19:04 10° SSE
IDEFIX/ARIANE 42P 3.8 18:08:48 10° S 18:13:46 45° W 18:18:48 10° NNW
Atlas Centaur 2 4.3 18:13:41 10° SW 18:15:28 12° SSW 18:17:08 10° S
Cosmos 1125 Rocket 3.8 18:10:39 10° N 18:15:35 41° ENE 18:20:29 10° SE
Cosmos 1814 Rocket 4.2 18:11:07 10° SSW 18:16:27 77° WNW 18:21:51 10° NNE
Cosmos 990 Rocket 4.4 18:17:39 10° NNW 18:22:52 67° WSW 18:28:04 10° S
Resurs 01 Rocket 2.8 18:23:00 21° ENE 18:23:11 21° ENE 18:26:34 10° NNE
USA 215 3.3 18:17:54 10° SE 18:24:28 85° SW 18:31:04 10° NW
Cosmos 1980 4.3 18:20:13 10° SSE 18:25:16 34° ESE 18:28:28 19° NE
Cosmos 2360 Rocket 3.2 18:20:49 10° SW 18:26:10 44° WNW 18:31:33 10° NNE
CZ-3A R/B 3.0 18:21:13 10° NW 18:26:35 49° NNE 18:29:46 20° E
Spot 2 Rocket 4.3 18:26:35 10° ESE 18:30:50 28° ENE 18:35:05 10° N
Cosmos 1340 Rocket 4.3 18:27:53 10° SE 18:29:45 19° ESE 18:29:45 19° ESE
Cosmos 2333 Rocket 2.5 18:27:55 10° S 18:33:18 46° ESE 18:36:58 20° NE
Cosmos 2228 Rocket 3.8 18:33:25 10° NNW 18:37:44 55° W 18:42:02 10° S
Meteor 1-27 4.4 18:32:36 10° N 18:38:17 52° ENE 18:43:56 10° SSE
Cosmos 841 Rocket 3.5 18:33:27 10° SSW 18:38:44 87° WNW 18:44:03 10° NNE
COSMO-SKYMED 1 2.7 18:34:49 10° N 18:39:10 78° WNW 18:43:30 10° SSW
NOSS 0 Rocket 4.1 18:33:27 10° S 18:39:25 50° ESE 18:43:27 20° NE
Molniya-1 4.1 18:39:21 10° SW 18:42:12 84° NW 18:44:41 25° NE
SL-14 R/B 3.2 18:40:40 10° S 18:44:30 58° E 18:46:31 26° NNE
FENGYUN 3A 4.0 18:40:59 10° SE 18:45:55 40° ENE 18:50:54 10° N
Cosmos 332 Rocket 3.8 18:42:29 10° SSW 18:47:18 84° WNW 18:51:25 15° NNE
Cosmos 2279 Rocket 3.9 18:46:14 10° N 18:52:26 69° E 18:58:37 10° SSE
Cosmos 2084 3.4 18:48:49 10° SSW 18:52:34 48° ESE 18:52:44 48° ESE
ATLAS 5 CENTAUR R/B 4.3 18:51:40 10° N 18:52:53 11° N 18:54:09 10° NNE
Cosmos 2219 Rocket 2.1 18:48:43 10° SSW 18:54:22 87° ESE 18:58:28 20° NNE
Cosmos 2278 Rocket 2.1 18:49:10 10° NNW 18:54:52 74° ENE 19:00:32 10° SSE
METEOR-M 4.2 18:57:38 10° SSE 19:02:59 82° WSW 19:08:23 10° NNW
Lacrosse 5 rocket 1.9 18:59:32 10° NW 19:02:29 37° N 19:02:29 37° N
Cosmos 1844 4.4 18:59:03 10° NNW 19:04:42 57° WSW 19:10:20 10° S
Cosmos 2180 Rocket 4.3 19:00:07 10° N 19:06:18 73° E 19:12:27 10° SSE
Meteor 2-10 3.8 19:01:54 10° N 19:06:59 86° E 19:12:09 10° S
ALOS 2.1 19:06:36 10° SSE 19:11:13 65° ENE 19:15:52 10° N
Cosmos 1300 3.8 19:09:44 10° NNW 19:13:25 45° W 19:17:04 10° SSW
CENTAUR R/B 3.2 19:07:36 10° WSW 19:13:40 52° NW 19:18:21 20° NNE
COSMOS 2428 3.9 19:08:25 10° SW 19:13:47 41° WNW 19:18:44 12° NNE
Nadezhda 4 Rocket 4.1 19:09:18 10° SSE 19:15:16 49° E 19:16:27 44° ENE
Cosmos 44 3.3 19:12:21 10° SSW 19:17:34 66° ESE 19:17:58 64° E
Cosmos 371 Rocket 3.8 19:13:58 10° SW 19:18:42 58° WNW 19:21:19 26° N
Cosmos 2237 Rocket 2.1 19:16:33 10° SSW 19:22:11 88° ESE 19:24:04 44° NNE
Lacrosse 5 3.5 19:20:56 10° WNW 19:24:58 23° NNW 19:25:59 22° N
DNEPR-1 R/B 4.4 19:18:17 10° SW 19:25:11 80° NW 19:27:16 43° NNE
SL-16 R/B 3.2 19:20:10 10° S 19:23:27 31° SSE 19:23:27 31° SSE
Cosmos 1726 4.1 19:23:04 10° NNW 19:26:24 30° W 19:29:43 10° SSW
Cosmos 2369 Rocket 4.5 19:24:07 10° N 19:24:13 10° N 19:24:13 10° N
Cosmos 2058 3.4 19:23:19 10° SSW 19:27:22 58° W 19:28:11 48° NNW
Cosmos 2297 3.6 19:25:53 10° NNW 19:31:34 70° ENE 19:31:34 70° ENE
CZ-4C R/B 4.4 19:31:03 10° NNW 19:34:41 15° N 19:35:01 15° NNE
SJ-6B 4.4 19:30:58 10° SSW 19:34:42 36° W 19:38:32 10° NNW
Cosmos 1805 Rocket 4.4 19:31:37 10° S 19:34:40 43° SSW 19:34:40 43° SSW
Cosmos 372 Rocket 4.5 19:31:32 10° NNW 19:36:32 57° WSW 19:41:30 10° S
Cosmos 44 Rocket 3.8 19:32:08 10° SW 19:37:11 58° NW 19:37:59 52° NNW
OTV 4 3.9 19:42:43 10° WSW 19:42:47 10° WSW 19:42:47 10° WSW
Cosmos 540 Rocket 4.4 19:49:34 10° SW 19:54:30 44° WNW 19:55:42 38° NNW
Resurs 01 Rocket 3.1 20:00:33 34° WNW 20:00:33 34° WNW 20:03:38 10° NNW
Cosmos 2333 Rocket 3.8 20:12:50 10° WSW 20:17:44 30° NW 20:19:01 27° NNW
Cosmos 2219 Rocket 4.4 20:35:16 10° W 20:39:06 18° NW 20:40:14 17° NNW
